FENGYUN 1C DEB

Satellite information

Favourite Embed

Satellite Type and Status

DEBRISIN ORBIT

Key statistics

Satellite FENGYUN 1C DEB at a glance.

Uptime

9618

Days in orbit

Revolutions

≈ 14.5

Per day

Orbit

SSO

Sun Synchronous Orbit

Inclination

98.9

Latest

Satellite identification and parameters

Extended collection of information and parameters for FENGYUN 1C DEB.

Object identification

Identified? True

Debris? True

Object name: FENGYUN 1C DEB

International designator: 1999-025AWD

Object number (NORAD): 30843

Object ID (CCSDS): 30843

Country: PEOPLES REPUBLIC OF CHINA (PRC)

Current information (Y/N): Y

RCS size: SMALL

Orbital parameters

Period: 99.16 minutes

Inclination: 98.8545 deg

SMA: 7096.591 km

Apoapsis: 824.615 km

Periapsis: 612.298 km

RAAN: 315.2909 deg

Eccentricy: 0.01495909

Argument of periapsis: 55.8849 deg

Mean anomaly: 305.6434 deg

Mean motion: 14.52205541 rev/day

Mean motion (dot): 0.00001421 rev/day2

B* drag term: 0.00031470756 1/REarth

Two-line elements (TLE)

Creation date: Sept. 6, 2025, 10:23 a.m.

Reference frame: TEME

Reference center: EARTH

Epoch: Sept. 5, 2025, 10:39 p.m. UTC

TLE line 0: 0 FENGYUN 1C DEB

TLE line 1: 1 30843U 99025AWD 25248.94429200 .00001421 00000-0 31471-3 0 9991

TLE line 2: 2 30843 98.8545 315.2909 0149591 55.8849 305.6434 14.52205541979050

Live tracking on map

Real-time ground track for satellite FENGYUN 1C DEB.

In-orbit conjunctions

A list of the most updated potential collisions computed for object FENGYUN 1C DEB.

Target Orbit TCA Probability of collision Miss distance Type
CZ-6A DEB LEO 2024-12-24 16:03:02 0.0004906479 158.0 (m) DEBRIS
CZ-6A DEB LEO 2024-11-25 22:57:00 0.0001454018 697.0 (m) DEBRIS

Associated space launch

Chinese polar orbiting meteorological satellite

FENGYUN 1C DEB was lifted into orbit during the mission ‘Long March 4B | Feng Yun 1C’, on board a Long March 4B space rocket.

The launch took place on May 10, 1999, 1:33 a.m. from Launch Complex 7.

For more information about the launch, click the button.

Launch to space Long March 4B | Feng Yun 1C
Long March 4B | Feng Yun 1C

Agency: N/A

Status: Launch Successful

Launch date: May 10, 1999, 1:33 a.m. UTC

Rocket: Long March 4B

Launch pad: Launch Complex 7

Location: Taiyuan Satellite Launch Center, People's Republic of China

...

Latest news about this satellite

There are no fresh news available about this satellite. Check back as we update our databases every day.


Newsletter sign-up

Weekly statistics, charts and insights to help you stay on top of the space industry.